Theta_e
338 344 344 341 340 339 339 338 336 332 330 332 333 335 338 336 335 333 332 331 329 327 331 333 334 338 338 338 337 335 331 329 327 326 324 321 320 324 329 330 330 331 327
337 343 344 339 342 342 341 339 335 332 333 333 334 336 335 333 332 332 331 329 329 325 327 331 332 332 334 335 333 332 331 329 327 324 324 322 321 321 327 329 331 327 327
337 342 342 339 342 343 341 339 334 331 333 332 335 337 332 330 327 329 329 328 326 326 325 328 328 328 329 330 331 332 331 330 329 327 325 323 324 323 329 330 330 330 329
337 342 341 339 345 343 341 339 334 333 331 331 335 333 329 329 328 327 327 328 328 327 324 323 322 324 323 324 324 327 329 329 329 327 322 322 323 323 327 330 330 331 331
339 342 341 341 344 342 341 337 336 333 331 330 329 330 329 328 328 329 328 329 327 325 323 322 321 322 323 324 327 328 328 328 326 322 321 319 316 318 324 328 332 331 329
339 342 340 342 342 342 339 337 336 334 331 329 331 328 329 330 331 330 329 329 326 324 322 323 324 324 324 326 328 329 329 329 328 326 324 323 321 318 322 328 329 328 328
339 341 338 341 342 339 338 337 334 334 333 330 331 329 329 330 331 332 332 328 327 325 325 326 328 329 329 328 329 330 330 328 327 324 325 325 325 323 326 327 329 328 328
335 339 337 339 339 339 338 335 334 333 333 331 330 331 332 329 331 332 333 330 329 326 326 329 331 331 331 331 331 330 327 326 325 326 326 327 326 326 330 330 328 329 331
334 338 338 339 339 339 338 335 333 333 335 330 329 332 333 328 329 334 333 332 328 327 329 329 330 331 330 330 330 330 330 330 329 328 328 328 328 328 332 333 333 332 331
336 338 338 339 340 338 339 335 333 332 331 329 327 330 331 328 327 329 330 327 327 328 328 330 330 331 331 331 330 330 329 329 328 327 327 327 327 329 330 333 334 335 334
338 338 339 340 339 339 338 335 333 331 331 331 330 329 327 323 323 326 326 327 328 329 330 330 331 331 331 331 328 327 326 325 325 325 324 323 322 328 331 330 331 332 332
339 339 339 340 338 339 338 336 334 333 332 332 331 330 326 321 324 327 328 328 329 329 330 331 331 330 327 327 323 320 319 318 320 320 318 318 318 324 325 325 326 328 329
339 340 341 340 339 339 338 335 334 333 333 332 332 329 327 326 327 328 329 329 329 330 330 331 327 321 319 318 316 315 313 313 312 312 313 313 316 320 322 322 325 324 326
337 339 340 340 340 339 338 335 333 334 334 333 331 329 329 328 328 329 329 328 330 330 325 317 317 316 314 311 309 307 307 307 308 308 307 309 313 316 317 321 319 317 318
331 334 338 340 339 338 339 333 333 334 334 332 331 330 330 330 329 328 329 328 323 317 316 314 312 310 307 304 302 302 301 301 305 304 304 305 304 309 314 312 312 312 314
322 324 329 336 338 338 336 333 334 335 334 333 333 332 332 330 330 326 324 320 315 312 311 308 306 303 301 300 300 300 298 302 302 299 301 301 301 303 306 307 307 307 310
323 321 320 328 336 338 336 335 336 337 335 334 333 332 330 331 329 323 320 315 310 308 305 302 300 300 299 299 298 298 297 301 298 298 298 298 297 298 299 301 302 302 305
321 320 320 324 333 337 337 337 337 337 336 334 331 331 330 325 324 323 316 309 304 302 301 300 299 298 297 297 297 297 296 299 297 296 296 295 296 296 296 295 294 296 299
320 321 324 327 333 337 337 337 337 335 334 330 331 330 323 321 320 317 309 304 301 301 300 298 297 296 295 295 296 296 295 298 298 297 295 295 294 295 294 293 292 291 293
323 324 325 330 333 335 335 334 330 328 327 326 324 322 319 314 313 307 304 302 300 300 298 296 295 294 293 293 295 295 296 298 299 297 296 294 294 294 294 292 291 290 291
322 325 328 332 334 334 332 326 319 319 320 318 316 315 312 308 304 303 303 301 299 299 295 294 293 293 292 292 293 294 295 295 295 295 294 293 293 293 292 291 290 290 289
321 324 327 332 332 331 329 323 320 317 314 312 309 305 303 304 302 302 302 300 298 295 294 293 292 292 291 292 291 291 291 292 294 294 293 294 293 292 291 291 289 289 289
320 322 324 330 329 326 325 321 315 311 306 302 301 300 301 302 301 301 300 298 296 294 293 292 291 291 291 291 292 290 288 289 290 291 293 291 292 291 290 289 288 288 288
321 322 322 326 326 324 323 321 319 308 302 300 300 300 300 299 299 298 297 296 295 293 292 291 290 290 290 289 290 289 289 290 289 288 290 290 289 288 288 287 287 287 287
322 324 322 322 322 322 321 322 313 306 305 301 299 299 298 297 297 296 295 295 293 292 291 290 290 289 289 289 288 288 288 288 288 287 287 287 287 287 286 286 286 286 287
322 323 320 319 319 319 318 313 318 314 303 299 298 298 297 296 295 295 294 293 291 290 290 289 289 289 289 288 288 287 287 287 287 286 285 286 286 286 286 285 286 286 287
Wind_Speed
13 23 19 17 16 14 13 13 10 8 6 6 7 9 10 11 9 8 6 6 4 3 3 5 8 9 7 9 7 6 4 2 5 10 9 9 5 4 4 5 5 6 4
21 25 20 17 17 16 14 13 10 8 7 6 8 12 11 7 7 5 5 4 3 3 0 4 6 5 7 7 5 3 2 3 5 7 9 8 4 3 4 5 5 6 5
23 27 22 20 18 16 14 13 10 7 8 7 11 12 9 7 4 4 4 3 3 5 4 2 2 3 2 2 2 3 3 4 5 7 9 6 4 5 5 9 7 6 6
24 26 24 21 19 17 15 12 10 8 8 8 9 9 7 6 5 6 5 3 3 3 4 3 1 1 2 2 3 3 3 4 6 8 9 7 6 6 6 5 7 7 6
24 25 22 21 19 16 15 12 9 9 9 9 9 8 7 7 9 8 7 4 2 3 4 4 4 4 4 3 3 3 4 4 5 7 8 7 8 8 6 8 5 7 8
23 23 21 21 18 16 14 12 10 9 9 11 9 11 10 9 9 6 6 5 1 2 3 3 4 4 3 2 2 4 5 6 7 8 8 8 8 7 6 7 7 9 10
22 20 21 21 19 15 14 12 10 9 9 10 9 9 8 5 5 10 8 5 2 1 1 2 3 3 4 4 5 7 6 6 9 9 9 9 8 8 8 8 9 9 10
21 20 20 20 18 15 14 12 10 9 8 9 11 9 6 4 2 5 8 4 2 1 2 3 4 5 6 6 6 7 7 7 8 9 10 10 9 9 9 9 10 11 12
18 19 20 20 19 16 15 13 11 9 8 7 10 9 7 5 1 4 4 3 1 2 4 5 5 5 5 6 7 8 10 10 11 12 12 13 13 12 11 11 11 12 13
17 19 20 20 20 19 17 14 12 11 9 7 8 10 9 6 4 3 3 2 0 2 3 4 4 5 6 7 9 10 11 11 11 11 12 11 11 11 13 14 15 15 15
17 20 20 20 21 20 18 15 13 12 10 8 7 6 7 7 6 4 3 2 1 2 2 4 6 7 6 7 7 7 7 7 7 6 6 7 9 9 10 11 11 11 14
21 23 21 21 21 21 20 17 16 13 12 10 9 7 5 6 6 4 3 2 2 3 5 5 6 6 7 6 5 6 7 8 7 7 7 7 8 9 9 9 10 11 12
22 23 24 24 22 23 21 19 17 15 13 12 10 8 6 5 4 4 3 0 3 4 5 3 1 4 4 5 6 7 8 8 7 6 6 6 6 8 8 9 9 11 14
20 22 24 25 24 24 23 20 18 16 14 13 11 9 8 5 5 4 3 0 1 2 2 3 4 5 6 8 8 8 9 9 7 5 5 4 9 10 10 9 11 13 13
20 24 26 27 27 25 24 21 19 17 15 13 12 10 8 6 6 4 4 2 3 2 2 4 5 6 7 8 9 9 10 7 4 5 5 5 5 9 11 12 12 14 13
24 27 28 30 29 27 26 24 20 17 15 13 12 11 8 6 6 5 6 5 3 4 5 6 7 8 10 10 10 9 10 4 3 5 5 6 6 7 13 14 13 15 12
24 26 28 31 32 31 28 25 21 19 17 14 11 10 11 10 9 8 7 5 4 5 6 7 7 8 10 11 11 8 10 2 5 5 6 5 5 6 8 14 15 16 13
21 21 20 25 33 33 30 25 23 20 18 15 16 15 13 13 11 7 6 6 6 5 7 9 11 12 14 15 14 11 12 3 3 8 8 8 8 8 8 12 16 16 14
20 19 17 21 29 32 28 25 22 19 20 21 21 19 17 14 10 8 7 6 6 7 9 10 12 13 15 18 17 14 14 4 6 1 8 8 9 10 9 14 19 20 17
13 15 15 21 27 29 28 27 23 24 25 24 22 20 16 13 10 9 8 7 6 7 10 11 10 12 13 19 15 18 10 2 6 5 7 13 10 12 13 17 22 24 20
12 13 18 25 29 33 33 31 28 30 27 23 20 17 16 14 12 10 9 7 7 9 11 11 11 13 15 20 13 18 5 5 9 8 15 22 11 15 19 26 27 26 25
16 15 20 27 32 35 36 31 31 34 27 24 21 19 18 15 13 11 8 8 8 9 9 12 13 11 10 16 11 4 4 6 4 16 24 8 16 19 28 23 30 30 26
19 20 22 29 34 34 35 33 32 29 28 25 22 21 18 15 13 10 8 8 8 9 11 11 11 12 11 10 10 7 3 2 7 6 10 18 11 25 19 29 30 27 27
22 21 23 28 34 33 37 38 41 32 24 23 25 22 19 14 12 9 8 7 8 9 9 9 9 10 9 9 7 8 4 8 3 5 4 18 14 24 23 30 26 30 30
22 23 25 28 32 35 37 38 35 28 21 29 26 23 19 15 11 9 7 7 7 7 8 7 7 8 8 6 7 7 8 11 9 5 8 7 26 25 27 21 30 24 25
21 24 27 30 33 36 36 33 32 31 30 31 26 23 19 14 11 8 6 6 6 6 6 6 7 8 8 8 9 7 7 4 6 5 4 13 16 19 27 30 18 24 23
Wind_Direction
173 163 166 173 169 166 159 153 149 147 143 140 152 155 152 141 137 133 120 96 48 70 83 61 70 92 118 108 113 112 103 59 8 352 345 339 325 306 276 270 302 250 274
165 164 171 178 170 164 158 157 159 154 147 138 151 151 148 132 114 122 139 97 58 40 38 60 60 55 71 72 79 84 45 351 344 347 348 345 2 351 309 276 271 288 267
167 167 172 176 177 169 163 163 164 160 154 145 166 153 137 136 116 154 131 112 67 46 43 80 95 69 69 64 60 54 36 6 326 327 331 342 337 344 336 287 254 258 285
165 170 172 175 179 172 168 170 167 159 156 159 154 150 151 146 128 154 155 144 86 51 46 84 153 261 267 273 293 304 322 322 318 315 317 313 308 312 327 323 250 242 271
170 172 174 178 178 175 173 174 171 163 156 152 149 155 166 176 177 176 178 171 91 36 60 81 86 74 58 44 11 359 343 337 316 322 327 326 305 297 298 313 272 255 273
173 173 175 179 179 183 179 177 173 170 169 167 163 173 173 194 204 205 205 205 141 60 86 78 73 54 39 355 349 335 323 326 320 325 326 327 319 315 285 281 274 269 268
174 174 176 180 187 190 184 181 177 173 176 179 182 184 193 200 237 213 204 210 211 14 47 12 1 345 347 340 321 312 303 297 306 320 327 330 332 318 292 275 269 270 264
178 177 180 183 188 192 191 186 182 179 178 182 193 196 205 218 331 191 198 208 218 296 334 330 320 327 325 323 328 322 329 324 322 327 325 326 327 322 300 284 271 271 273
185 182 185 188 191 198 196 194 189 186 183 182 189 200 205 203 148 155 181 200 231 301 323 323 332 342 359 6 0 349 338 330 323 323 320 319 319 313 300 290 277 270 264
193 193 191 196 196 200 197 199 195 191 190 185 185 201 214 218 205 173 190 192 349 336 353 350 2 7 0 352 339 329 325 314 313 307 307 327 318 309 306 295 286 273 267
200 203 202 202 206 205 199 200 201 197 195 197 200 203 213 210 207 204 180 181 72 354 340 341 340 331 329 334 332 318 317 330 342 350 348 333 332 332 336 345 347 322 299
208 208 209 210 210 209 205 203 203 203 202 205 211 216 206 184 185 200 204 218 268 293 316 324 334 338 331 337 3 1 358 357 351 351 339 334 346 357 356 0 4 354 334
216 213 211 214 215 213 211 208 207 208 208 211 213 203 180 171 186 210 215 267 305 290 293 296 338 11 10 10 2 356 353 355 356 359 359 7 10 19 22 25 28 27 30
222 225 220 219 218 214 214 212 210 210 211 210 203 196 189 177 178 185 188 171 98 87 84 77 38 31 7 1 356 353 349 349 0 22 31 32 48 39 31 44 39 28 24
233 236 228 223 220 215 211 210 209 210 210 201 197 194 194 194 199 200 151 143 123 118 76 33 16 9 3 2 356 350 346 350 12 28 41 41 34 47 49 36 30 24 24
250 248 240 227 221 214 210 208 206 205 204 199 197 199 203 191 172 181 145 135 111 68 38 17 8 4 5 2 360 357 4 12 42 43 48 41 37 51 42 35 27 18 19
263 267 247 230 220 212 208 206 204 202 200 197 197 181 175 182 174 158 148 124 83 49 31 19 9 4 1 6 1 355 356 22 58 59 40 26 27 27 28 30 22 15 10
261 258 242 227 220 209 205 201 204 201 196 194 170 171 168 159 153 151 133 97 70 47 29 17 11 7 8 4 354 347 342 236 123 61 37 37 29 15 11 11 11 3 0
255 242 227 215 211 204 199 195 199 189 182 170 163 158 155 151 141 142 120 98 73 46 34 26 15 9 4 356 349 341 334 235 207 355 17 12 5 3 358 359 354 348 346
234 225 214 201 200 191 183 180 170 164 159 154 151 151 150 140 135 135 121 103 74 46 41 30 22 22 15 357 347 341 328 249 231 282 331 348 334 341 342 338 340 340 336
208 192 186 185 186 180 171 160 153 149 147 146 146 145 143 138 137 133 118 98 66 41 42 33 28 18 17 8 359 343 340 304 272 283 330 313 311 333 334 327 332 333 330
207 186 180 183 180 178 175 164 157 152 149 147 144 143 141 140 136 130 111 88 65 56 48 36 30 26 22 20 7 334 354 334 7 306 315 320 309 310 323 323 326 328 325
205 194 182 180 178 177 170 161 154 145 141 139 142 139 134 140 135 123 106 85 71 54 48 42 34 29 16 16 22 32 348 306 328 305 292 301 306 307 311 319 322 324 320
206 196 189 182 180 176 171 166 161 153 149 159 151 143 139 139 130 118 102 84 63 55 53 43 32 28 22 17 9 358 330 291 315 318 301 305 305 311 312 314 316 316 310
193 188 186 184 181 177 175 174 162 156 160 156 151 145 142 136 126 115 98 76 64 56 48 34 24 17 13 7 356 336 327 308 281 251 303 307 311 310 308 309 304 310 312
182 180 181 180 178 178 177 175 176 168 157 153 152 148 144 136 126 110 92 77 65 55 41 24 12 0 354 346 337 328 315 303 292 291 288 305 298 309 307 301 309 308 309